Location: Berg
(47.2344°N, 9.5296°E)
Time: 21:07:30
(UTC+00:00)

CZ-4B R/B - Pass Details

Date: 24 January 2021
Orbit: 387 x 458 km, 97.6° (Epoch: 04 March)

Event Time Altitude Azimuth Distance (km) Brightness Sun altitude
Exits shadow 18:18:14 - 356° (N) 2,100 4.8 -21.2°
Reaches altitude 10° 18:19:39 10° 345° (NNW) 1,573 4.2 -21.5°
Maximum altitude 18:22:19 22° 293° (WNW) 1,012 3.8 -21.9°
Drops below altitude 10° 18:24:55 10° 241° (WSW) 1,531 5.0 -22.4°
Sets 18:27:10 0° 225° (SW) 2,376 5.8 -22.7°
